| time (UTC) | temp C | wind direction | speed KPH | gust KPH | rain 1hr cm | rain 24hr cm | rain mn cm | humidity % | barometer mb |
| 20260509054551 | 5 | 114 | 0.0 | 0.0 | 0.00 | 0.00 | 0.00 | 74 | 1011.9 |
| 20260509053026 | 5 | 114 | 0.0 | 0.0 | 0.00 | 0.00 | 0.00 | 73 | 1011.8 |
| 20260509051517 | 5 | 114 | 0.0 | 3.2 | 0.00 | 0.00 | 0.00 | 74 | 1011.9 |
| 20260509050057 | 5 | 22 | 0.0 | 0.0 | 0.00 | 0.00 | 0.00 | 71 | 1011.8 |
| 20260509044532 | 5 | 22 | 0.0 | 0.0 | 0.00 | 0.00 | 0.00 | 70 | 1011.8 |
| 20260509043009 | 5 | 22 | 0.0 | 0.0 | 0.00 | 0.00 | 0.00 | 70 | 1011.9 |
| 20260509041545 | 5 | 22 | 0.0 | 0.0 | 0.00 | 0.00 | 0.00 | 71 | 1011.7 |
| 20260509040019 | 5 | 22 | 0.0 | 0.0 | 0.00 | 0.00 | 0.00 | 69 | 1011.4 |
| 20260509034556 | 5 | 22 | 0.0 | 0.0 | 0.00 | 0.00 | 0.00 | 69 | 1011.3 |
| 20260509033041 | 5 | 22 | 0.0 | 0.0 | 0.00 | 0.00 | 0.00 | 69 | 1011.2 |
| 20260509031528 | 5 | 22 | 0.0 | 0.0 | 0.00 | 0.00 | 0.00 | 69 | 1011.0 |
| 20260509030054 | 5 | 22 | 0.0 | 0.0 | 0.00 | 0.00 | 0.00 | 69 | 1010.9 |
| 20260509024535 | 5 | 22 | 0.0 | 0.0 | 0.00 | 0.00 | 0.00 | 69 | 1010.8 |
| 20260509023007 | 5 | 22 | 0.0 | 0.0 | 0.00 | 0.00 | 0.00 | 67 | 1010.7 |
| 20260509021541 | 5 | 22 | 0.0 | 0.0 | 0.00 | 0.00 | 0.00 | 66 | 1010.6 |
| 20260509020024 | 5 | 22 | 0.0 | 0.0 | 0.00 | 0.00 | 0.00 | 64 | 1010.3 |
| 20260509014602 | 5 | 22 | 0.0 | 0.0 | 0.00 | 0.00 | 0.00 | 62 | 1010.1 |
| 20260509013040 | 6 | 22 | 0.0 | 0.0 | 0.00 | 0.00 | 0.00 | 60 | 1009.9 |
| 20260509011512 | 6 | 22 | 0.0 | 0.0 | 0.00 | 0.00 | 0.00 | 58 | 1009.7 |
| 20260509010050 | 7 | 22 | 0.0 | 0.0 | 0.00 | 0.00 | 0.00 | 56 | 1009.4 |
| 20260509004530 | 7 | 22 | 0.0 | 0.0 | 0.00 | 0.00 | 0.00 | 54 | 1009.1 |
| 20260509003010 | 8 | 22 | 0.0 | 0.0 | 0.00 | 0.00 | 0.00 | 51 | 1008.8 |
| 20260509001547 | 9 | 22 | 0.0 | 0.0 | 0.00 | 0.00 | 0.00 | 48 | 1008.6 |
| 20260509000036 | 10 | 22 | 0.0 | 0.0 | 0.00 | 0.00 | 0.00 | 44 | 1008.5 |
| 20260508234512 | 10 | 22 | 0.0 | 0.0 | 0.00 | 0.00 | 0.00 | 41 | 1008.3 |
| 20260508233053 | 11 | 9 | 0.0 | 1.6 | 0.00 | 0.00 | 0.00 | 39 | 1008.1 |
| 20260508231528 | 11 | 336 | 0.0 | 4.8 | 0.00 | 0.00 | 0.00 | 37 | 1008.1 |
| 20260508230005 | 12 | 319 | 0.0 | 4.8 | 0.00 | 0.00 | 0.00 | 36 | 1007.9 |
| 20260508224545 | 12 | 330 | 0.0 | 12.9 | 0.00 | 0.00 | 0.00 | 36 | 1007.7 |
| 20260508223024 | 12 | 111 | 1.6 | 14.5 | 0.00 | 0.00 | 0.00 | 36 | 1007.6 |
| 20260508221600 | 12 | 292 | 0.0 | 4.8 | 0.00 | 0.00 | 0.00 | 37 | 1007.6 |
| 20260508220038 | 13 | 310 | 4.8 | 16.1 | 0.00 | 0.00 | 0.00 | 35 | 1007.4 |
| 20260508214511 | 13 | 316 | 0.0 | 9.7 | 0.00 | 0.00 | 0.00 | 37 | 1007.3 |
| 20260508213100 | 13 | 283 | 3.2 | 12.9 | 0.00 | 0.00 | 0.00 | 36 | 1007.4 |
| 20260508211532 | 14 | 321 | 4.8 | 20.9 | 0.00 | 0.00 | 0.00 | 33 | 1007.1 |
| 20260508210005 | 13 | 233 | 4.8 | 24.1 | 0.00 | 0.00 | 0.00 | 34 | 1006.9 |
| 20260508204544 | 14 | 300 | 3.2 | 19.3 | 0.00 | 0.00 | 0.00 | 34 | 1006.8 |
| 20260508203034 | 13 | 222 | 6.4 | 17.7 | 0.00 | 0.00 | 0.00 | 37 | 1006.7 |
| 20260508201519 | 12 | 109 | 3.2 | 22.5 | 0.00 | 0.00 | 0.00 | 36 | 1006.7 |
| 20260508200124 | 12 | 302 | 8.0 | 19.3 | 0.00 | 0.00 | 0.00 | 36 | 1006.6 |
| 20260508194534 | 13 | 263 | 3.2 | 14.5 | 0.00 | 0.00 | 0.00 | 36 | 1006.3 |
| 20260508193012 | 13 | 317 | 4.8 | 14.5 | 0.00 | 0.00 | 0.00 | 35 | 1006.1 |
| 20260508191547 | 13 | 18 | 6.4 | 19.3 | 0.00 | 0.00 | 0.00 | 34 | 1005.9 |
| 20260508190032 | 13 | 279 | 4.8 | 16.1 | 0.00 | 0.00 | 0.00 | 32 | 1006.0 |
| 20260508184513 | 13 | 267 | 1.6 | 12.9 | 0.00 | 0.00 | 0.00 | 34 | 1005.7 |
| 20260508183053 | 13 | 293 | 1.6 | 19.3 | 0.00 | 0.00 | 0.00 | 31 | 1005.8 |
| 20260508181604 | 14 | 311 | 1.6 | 16.1 | 0.00 | 0.00 | 0.00 | 31 | 1005.7 |
| 20260508180016 | 14 | 318 | 6.4 | 19.3 | 0.00 | 0.00 | 0.00 | 31 | 1005.8 |
| 20260508174606 | 13 | 323 | 0.0 | 19.3 | 0.00 | 0.00 | 0.00 | 32 | 1005.8 |
| 20260508173030 | 13 | 327 | 0.0 | 14.5 | 0.00 | 0.00 | 0.00 | 33 | 1005.7 |
| 20260508171506 | 13 | 216 | 3.2 | 14.5 | 0.00 | 0.00 | 0.00 | 36 | 1005.8 |
| 20260508170048 | 13 | 348 | 1.6 | 16.1 | 0.00 | 0.00 | 0.00 | 34 | 1005.8 |
| 20260508164534 | 13 | 313 | 3.2 | 12.9 | 0.00 | 0.00 | 0.00 | 34 | 1005.7 |
| 20260508163007 | 13 | 332 | 4.8 | 20.9 | 0.00 | 0.00 | 0.00 | 34 | 1006.0 |
| 20260508161547 | 13 | 275 | 3.2 | 12.9 | 0.00 | 0.00 | 0.00 | 34 | 1006.0 |
| 20260508160036 | 14 | 331 | 3.2 | 14.5 | 0.00 | 0.00 | 0.00 | 33 | 1006.0 |
| 20260508154503 | 14 | 304 | 3.2 | 12.9 | 0.00 | 0.00 | 0.00 | 34 | 1006.1 |
| 20260508153043 | 13 | 327 | 1.6 | 14.5 | 0.00 | 0.00 | 0.00 | 35 | 1006.1 |
| 20260508151521 | 13 | 294 | 0.0 | 11.3 | 0.00 | 0.00 | 0.00 | 36 | 1006.2 |
| 20260508150101 | 13 | 5 | 4.8 | 17.7 | 0.00 | 0.00 | 0.00 | 36 | 1006.3 |
| 20260508144536 | 13 | 309 | 6.4 | 14.5 | 0.00 | 0.00 | 0.00 | 36 | 1006.3 |
| 20260508143011 | 13 | 192 | 1.6 | 14.5 | 0.00 | 0.00 | 0.00 | 38 | 1006.4 |
| 20260508141558 | 13 | 258 | 1.6 | 9.7 | 0.00 | 0.00 | 0.00 | 37 | 1006.5 |
| 20260508140032 | 12 | 339 | 4.8 | 16.1 | 0.00 | 0.00 | 0.00 | 39 | 1006.7 |
| 20260508134508 | 12 | 310 | 1.6 | 14.5 | 0.00 | 0.00 | 0.00 | 41 | 1006.9 |
| 20260508133050 | 11 | 277 | 4.8 | 16.1 | 0.00 | 0.00 | 0.00 | 42 | 1006.9 |
| 20260508131520 | 11 | 269 | 3.2 | 11.3 | 0.00 | 0.00 | 0.00 | 46 | 1006.9 |
| 20260508130057 | 11 | 298 | 1.6 | 8.0 | 0.00 | 0.00 | 0.00 | 47 | 1007.1 |
| 20260508124531 | 10 | 327 | 0.0 | 8.0 | 0.00 | 0.00 | 0.00 | 50 | 1007.0 |
| 20260508123017 | 9 | 282 | 0.0 | 9.7 | 0.00 | 0.00 | 0.00 | 52 | 1007.1 |
| 20260508121603 | 8 | 293 | 1.6 | 8.0 | 0.00 | 0.00 | 0.00 | 52 | 1007.2 |
| 20260508120035 | 7 | 326 | 0.0 | 6.4 | 0.00 | 0.00 | 0.00 | 56 | 1007.2 |
| 20260508114501 | 7 | 305 | 0.0 | 6.4 | 0.00 | 0.00 | 0.00 | 59 | 1007.2 |
| 20260508113041 | 6 | 250 | 0.0 | 1.6 | 0.00 | 0.00 | 0.00 | 61 | 1007.2 |
| 20260508111523 | 5 | 333 | 0.0 | 0.0 | 0.00 | 0.00 | 0.00 | 64 | 1007.1 |
| 20260508110105 | 3 | 329 | 0.0 | 0.0 | 0.00 | 0.00 | 0.00 | 69 | 1007.1 |
| 20260508104541 | 3 | 329 | 0.0 | 0.0 | 0.00 | 0.00 | 0.00 | 72 | 1007.1 |
| 20260508103028 | 3 | 329 | 0.0 | 0.0 | 0.00 | 0.00 | 0.00 | 73 | 1007.0 |
| 20260508101619 | 3 | 329 | 0.0 | 0.0 | 0.00 | 0.00 | 0.00 | 71 | 1006.7 |
| 20260508100033 | 3 | 329 | 0.0 | 0.0 | 0.00 | 0.00 | 0.00 | 69 | 1006.5 |
| 20260508094519 | 2 | 211 | 0.0 | 0.0 | 0.00 | 0.00 | 0.00 | 71 | 1006.4 |
| 20260508093006 | 1 | 316 | 0.0 | 0.0 | 0.00 | 0.00 | 0.00 | 74 | 1006.2 |
| 20260508091549 | 1 | 339 | 0.0 | 0.0 | 0.00 | 0.00 | 0.00 | 76 | 1006.1 |
| 20260508090027 | 1 | 332 | 0.0 | 0.0 | 0.00 | 0.03 | 0.00 | 77 | 1005.8 |
| 20260508084501 | 1 | 332 | 0.0 | 0.0 | 0.00 | 0.03 | 0.00 | 75 | 1005.6 |
| 20260508083048 | 2 | 332 | 0.0 | 0.0 | 0.00 | 0.03 | 0.00 | 74 | 1005.6 |
| 20260508081517 | 2 | 332 | 0.0 | 0.0 | 0.00 | 0.03 | 0.00 | 74 | 1005.6 |
| 20260508080055 | 2 | 332 | 0.0 | 0.0 | 0.00 | 0.03 | 0.00 | 72 | 1005.5 |
| 20260508074528 | 2 | 332 | 0.0 | 0.0 | 0.00 | 0.03 | 0.00 | 71 | 1005.2 |
| 20260508073016 | 3 | 332 | 0.0 | 0.0 | 0.00 | 0.03 | 0.00 | 68 | 1005.3 |
| 20260508071550 | 3 | 332 | 0.0 | 0.0 | 0.00 | 0.03 | 0.00 | 66 | 1005.2 |
| 20260508070022 | 3 | 332 | 0.0 | 0.0 | 0.00 | 0.03 | 0.00 | 65 | 1005.2 |
| 20260508064615 | 4 | 332 | 0.0 | 0.0 | 0.00 | 0.03 | 0.00 | 63 | 1005.2 |
| 20260508063035 | 4 | 331 | 0.0 | 0.0 | 0.00 | 0.03 | 0.00 | 62 | 1005.4 |
| 20260508061516 | 5 | 322 | 0.0 | 0.0 | 0.00 | 0.03 | 0.00 | 61 | 1005.5 |
| 20260508060047 | 5 | 323 | 0.0 | 0.0 | 0.00 | 0.03 | 0.00 | 62 | 1005.5 |